Location: Melizzano
(41.1500°N, 14.5000°E)
Time: 05:39:40
(UTC+00:00)

Cosmos 1709 Rocket - Pass Details

Date: 03 October 2021
Orbit: 947 x 1002 km, 82.9° (Epoch: 16 October)

Event Time Altitude Azimuth Distance (km) Brightness Sun altitude
Rises 01:15:17 0° 12° (NNE) 3,630 7.6 -40.8°
Reaches altitude 10° 01:19:56 10° 44° (NE) 2,685 7.0 -40.1°
Maximum altitude 01:21:56 12° 64° (ENE) 2,572 6.8 -39.8°
Drops below altitude 10° 01:23:57 10° 83° (E) 2,689 6.8 -39.5°
Sets 01:28:34 0° 115° (ESE) 3,642 7.3 -38.8°
